CZ-3B DEB, 40179

Orbit data source: Space-Track

CZ-3B DEB, 40179 is space debris in HEO originally from a launch on Mon, 19 Dec 2011 UTC launched from the Xichang Space Center, China (XSC). Debris objects in space refer to the collection of defunct objects orbiting the Earth. Examples of debris include non-operational satellites, rocket bodies, and fragments generated from explosions, collisions, or faulty payload assembly.

Loading next visibility...
Identifier
40179, 2011-077C
Orbit
HEO
Country
Flag of CNCN / PRC
Related business
Manufacturer
CALT
Mission
Spacecraft
Bus & Motor
Unknown
Mass
Unknown
Launch date (UTC)
2011-12-19 (14 years ago)
Launch vehicle
Unknown
Launch site
Xichang Space Center, China (XSC)
Object type
Payload
Rocket body
Debris
Shape & HBR
Unknown
Radar Cross Section
Medium (>0.1 m² and <1 m²)

Expand to show TLE details & history
Last TLE update: 14 hours ago

TLE from 14 hours ago
0 CZ-3B DEB
1 40179U 11077C   25259.61264506 -.00000219  00000-0 -49796-3 0  9992
2 40179  26.3339  12.8904 7419069  22.0451 357.5572  1.91881362 82859
Epoch: 2025-09-16T14:42Z
TLE epoch observation values (Epoch: 2025-09-16T14:42:12.533Z)
Latitude
0.00013°
Longitude
156.52913°
Altitude
905.984 km
Speed
9.74 km/s
True Right ascension
00h 51m 31s
True Declination
0° 00' 00"
Sunlit
Object was in full shadow at epoch
Visualization orbit readout
Latitude
Unknown
Longitude
Unknown
Altitude
Unknown
Speed
Unknown
Apparent Right ascension
Unknown
Apparent Declination
Unknown
Sunlit
N/A
Visualization observer readout
Local Sidereal Time
21:49:51
Azimuth
Unknown
Elevation
Unknown
Doppler factor
Unknown
Orbital elements
Apogee altitude
41,279.403 km
Perigee altitude
683.137 km
Semi-major axis
27,359.407 km
Eccentricity
0.74191
Inclination
26.3339°
RAAN
12.8904°
Arg. of periapsis
22.0451°
True anomaly
336.02256°
Mean anomaly
357.5572°
Eccentric anomaly
350.65417°
Mean motion
0.4796 °/min
Orbital period
750.62 mins
BSTAR
-0.00049796
Loading maneuver chart data...
Computing Atmospheric mass density...
Loading historical data...
Loading historical data...
Loading historical data...
Loading historical data...
Loading historical data...
Loading historical data...
Loading historical data...

Documentation

Showing up to 5 results
|